Voltar ao catálogo

SL-8 DEB *

AtivoLEO
NORAD 3965·DEBRIS·🇷🇺 Russia

Lançado Mar 15, 1965 de Baikonur Cosmodrome

Loading…

Próximas Passagens (próximas 24 horas)

TLE

AtualizadoSource: Space-Track

Época: Sep 14, 2026, 04:05 UTC

1 03965U 65020EY  26257.17014900  .00000277  00000-0  28504-2 0  9997
2 03965  56.2964 176.3289 0270605  41.6657  99.2251 12.27698516760291

Acompanhe SL-8 DEB * em tempo real com AllMySat

Download on the App Store